This is the latest recevied weather packets stored in our database for station/object DM5KA. If no packets are shown the sender has not sent any weather packets the latest 10 day(s).
| Time | Temp. | Humidity | Pressure | Rain* | Wind** | Luminosity | Snow |
|---|---|---|---|---|---|---|---|
| 1777732502 | 26.11° C | 23% | 1018 hPa | 0 mm | 1.79 m/s, 112° | - | - |
| 1777732203 | 26.11° C | 23% | 1018 hPa | 0 mm | 3.58 m/s, 112° | - | - |
| 1777731903 | 26.11° C | 23% | 1018 hPa | 0 mm | 3.13 m/s, 112° | - | - |
| 1777731603 | 26.11° C | 24% | 1018 hPa | 0 mm | 2.68 m/s, 248° | - | - |
| 1777731302 | 26.11° C | 23% | 1018 hPa | 0 mm | 6.71 m/s, 248° | - | - |
| 1777731003 | 26.11° C | 24% | 1018 hPa | 0 mm | 3.13 m/s, 112° | - | - |
| 1777730703 | 26.11° C | 24% | 1018 hPa | 0 mm | 3.58 m/s, 248° | - | - |
| 1777730402 | 26.11° C | 23% | 1019 hPa | 0 mm | 5.36 m/s, 270° | - | - |
| 1777730102 | 26.11° C | 23% | 1019 hPa | 0 mm | 6.71 m/s, 248° | - | - |
| 1777729803 | 26.11° C | 24% | 1019 hPa | 0 mm | 4.92 m/s, 225° | - | - |
| 1777729502 | 26.11° C | 24% | 1019 hPa | 0 mm | 5.81 m/s, 248° | - | - |
| 1777729202 | 26.11° C | 24% | 1019 hPa | 0 mm | 2.24 m/s, 248° | - | - |
| 1777728903 | 26.11° C | 24% | 1019 hPa | 0 mm | 5.81 m/s, 248° | - | - |
| 1777728603 | 25° C | 26% | 1019 hPa | 0 mm | 3.58 m/s, 292° | - | - |
| 1777728303 | 25° C | 24% | 1019 hPa | 0 mm | 5.81 m/s, 225° | - | - |
| 1777728003 | 25° C | 24% | 1019 hPa | 0 mm | 6.26 m/s, 202° | - | - |
| 1777727702 | 25° C | 25% | 1019 hPa | 0 mm | 4.92 m/s, 225° | - | - |
| 1777727402 | 25° C | 24% | 1019 hPa | 0 mm | 4.47 m/s, 270° | - | - |
| 1777726503 | 25° C | 26% | 1020 hPa | 0 mm | 5.36 m/s, 248° | - | - |
| 1777689602 | 6.11° C | 86% | 1023 hPa | 0 mm | 0 m/s | - | - |
| 1777689302 | 6.11° C | 86% | 1023 hPa | 0 mm | 0 m/s | - | - |
| 1777689002 | 6.11° C | 86% | 1023 hPa | 0 mm | 0 m/s | - | - |
| 1777688702 | 6.11° C | 86% | 1023 hPa | 0 mm | 0 m/s | - | - |
| 1777688403 | 6.11° C | 86% | 1023 hPa | 0 mm | 0 m/s | - | - |
| 1777688103 | 6.11° C | 86% | 1023 hPa | 0 mm | 0 m/s | - | - |
* Rain latest hour (hover to see other rain measurements)
** Current wind speed in m/s (hover to see current wind gust speed)